Wind_Speed
38 36 35 36 38 42 45 50 54 58 61 65 68 73 77 84 89 80 42 26 28 34 29 23 28 32 35 33 35 35 33 28 29 29 30 31 33 38 43 49 48 48 54 60 69 80 87 95 94 91 88 93 93 91
37 37 38 40 41 44 47 51 55 58 63 66 67 73 77 83 86 68 33 28 33 37 36 32 33 34 33 32 31 27 25 24 25 24 21 19 26 35 43 47 51 51 50 57 64 69 78 86 95 96 91 91 89 91
42 41 42 44 45 46 50 53 55 58 63 66 68 74 75 82 83 63 34 30 36 40 36 30 26 26 22 21 20 19 19 17 18 20 18 17 17 22 31 44 50 51 52 52 56 63 68 77 86 93 100 100 93 89
47 47 47 48 49 50 52 55 57 59 63 67 69 73 75 82 82 64 32 30 35 38 33 29 24 16 17 17 22 25 27 26 22 19 16 13 11 14 22 31 40 45 48 52 53 57 64 70 76 82 91 95 101 98
55 51 51 50 51 52 54 59 62 63 64 67 68 72 74 81 79 54 31 27 31 35 28 25 19 15 17 20 24 30 34 38 33 30 25 20 12 7 8 16 26 33 40 45 49 53 56 62 66 72 76 82 89 96
61 62 61 58 57 57 59 61 64 64 66 68 69 70 72 77 76 48 27 24 27 32 26 23 19 17 21 26 27 31 35 38 41 42 38 33 27 19 10 2 10 20 29 36 42 47 52 56 61 65 69 71 78 85
65 65 64 64 63 63 63 64 66 65 67 68 68 70 69 72 70 41 23 23 23 28 25 21 17 14 19 24 28 34 36 37 39 42 43 43 40 35 26 17 8 4 13 24 33 38 44 50 54 58 64 69 74 78
72 67 67 65 63 63 65 66 68 68 69 68 67 67 67 70 61 32 22 20 18 24 26 18 13 14 16 21 23 27 30 32 35 38 42 45 43 40 38 35 29 18 8 5 16 26 36 43 50 56 59 63 69 75
54 64 67 67 67 65 61 59 61 66 66 69 65 64 65 67 49 28 21 18 16 19 22 16 13 9 10 12 16 19 23 27 33 36 37 39 41 40 39 35 35 31 25 18 11 9 18 29 39 49 58 61 64 69
59 53 59 68 67 65 60 57 57 60 63 63 62 65 62 62 46 29 23 19 15 14 15 14 11 11 7 12 13 15 19 23 27 31 34 38 41 40 40 44 33 33 33 27 21 18 13 16 24 34 42 49 60 68
64 62 59 62 65 68 63 55 58 60 59 61 62 60 60 52 37 21 21 19 16 15 16 14 9 8 5 9 7 9 13 19 23 26 29 33 38 41 42 40 38 34 34 35 31 27 23 16 17 23 31 39 46 53
68 64 62 61 63 57 59 54 49 50 55 56 57 57 51 34 27 20 18 18 14 13 17 16 14 8 7 9 6 7 10 14 19 20 24 27 30 36 42 43 37 35 36 37 38 34 36 28 23 22 26 32 38 46
71 68 65 59 58 49 44 43 44 47 48 51 55 55 40 28 24 19 19 19 19 21 20 19 17 14 13 12 8 9 15 23 25 20 21 26 35 38 39 47 47 41 40 43 43 40 39 30 25 26 28 31 34 38
73 67 61 58 52 48 44 46 46 46 49 54 52 42 30 28 25 21 22 21 19 19 19 20 20 17 14 12 15 17 22 30 29 25 26 27 34 37 41 45 51 54 52 51 50 48 47 37 28 25 27 32 37 40
62 58 53 49 48 46 46 48 48 47 46 45 38 31 27 27 24 22 22 21 18 20 23 23 23 24 20 20 22 23 24 24 29 29 30 31 35 38 43 49 52 58 60 58 57 55 51 40 34 31 30 32 35 39
50 49 46 43 44 44 47 49 46 46 41 34 29 27 27 23 23 22 23 24 22 21 24 24 26 29 25 21 22 23 24 28 32 35 34 35 39 43 48 54 54 59 59 59 59 55 45 38 34 32 31 34 37 40
39 41 41 41 43 44 45 45 44 40 33 30 28 29 31 24 24 25 25 26 26 23 24 24 27 30 27 20 23 24 27 34 36 35 39 35 42 49 53 56 60 60 61 63 59 51 43 38 34 32 30 32 33 36
40 38 38 39 41 42 41 40 35 32 30 25 31 31 30 26 27 26 23 23 22 23 24 25 27 29 28 26 24 27 32 35 33 36 40 39 39 46 52 55 59 61 64 65 57 49 43 39 36 33 31 30 32 34
33 33 35 37 37 37 35 32 30 27 22 25 32 35 28 31 30 26 23 21 22 22 24 24 30 32 29 28 29 32 35 34 36 40 42 42 47 49 52 57 59 62 65 60 52 48 42 37 34 32 30 29 28 27
31 33 34 34 32 30 28 26 23 21 23 24 28 33 34 32 32 29 24 21 21 23 23 25 29 34 32 29 30 37 35 35 41 40 42 46 50 51 57 60 61 64 60 54 48 44 39 36 33 29 27 24 22 21
29 28 26 25 24 23 21 21 21 21 23 26 28 27 25 26 28 27 25 23 22 21 21 25 28 32 30 34 32 33 33 37 40 44 45 46 51 58 61 61 63 60 54 49 45 39 36 34 31 25 25 24 22 21
20 19 19 19 18 19 21 23 20 20 21 22 26 28 27 26 27 26 25 23 21 20 21 25 29 31 33 33 36 39 37 40 42 43 48 53 57 59 62 62 59 53 48 45 40 36 34 31 28 24 24 25 22 22
17 17 16 17 17 19 19 20 18 20 18 18 21 24 25 25 25 24 23 23 20 19 22 27 31 32 32 32 34 33 38 42 44 47 55 58 60 62 61 56 51 47 44 42 36 34 32 29 27 26 25 25 22 20
16 15 15 15 15 16 18 20 19 17 15 18 21 23 24 24 25 22 22 20 21 20 21 23 26 29 28 29 32 39 42 46 48 55 61 62 63 60 54 49 44 41 39 34 31 30 28 27 26 26 25 24 21 17
13 15 17 20 22 22 21 18 20 17 18 21 21 19 19 20 19 17 20 20 19 21 24 26 26 26 27 33 35 37 44 52 59 62 64 63 59 52 47 43 39 37 34 30 29 27 25 24 24 26 24 22 19 16
16 17 17 18 19 20 21 21 21 20 22 19 15 13 15 16 17 17 18 19 20 23 27 30 27 29 32 35 40 46 49 57 61 62 61 55 50 44 40 37 34 32 28 27 25 24 23 21 20 21 23 22 21 17
9 10 12 13 15 18 18 18 20 21 18 13 11 12 12 12 12 14 18 20 22 26 29 27 30 35 36 42 47 48 53 59 61 59 54 47 41 38 35 33 29 27 24 23 23 23 22 21 20 19 19 18 18 17
12 14 16 17 18 18 18 18 16 13 11 12 12 12 11 12 14 16 19 22 26 30 32 29 31 38 41 43 48 53 56 57 57 52 46 41 37 34 31 29 27 24 23 23 22 22 22 21 20 19 19 19 19 18
21 22 22 22 21 19 17 14 11 9 9 11 10 9 10 12 14 17 22 27 28 24 24 28 32 38 43 48 53 55 55 54 49 43 40 37 34 30 28 26 25 24 22 21 21 20 20 20 20 19 18 17 18 17
20 18 17 16 15 13 10 8 8 9 8 7 8 10 11 13 13 16 17 17 20 25 30 35 39 43 47 52 52 53 52 47 42 36 34 32 30 27 26 25 25 24 23 21 21 21 19 18 17 17 17 16 14 14
15 12 9 7 7 7 6 6 6 7 8 10 10 13 10 11 16 17 19 22 26 29 32 35 39 43 48 49 52 50 44 39 34 31 28 26 25 25 24 23 23 24 24 24 23 22 21 19 18 17 16 14 13 12
5 6 7 6 6 5 4 4 3 4 6 9 6 8 13 16 19 22 26 31 33 35 36 38 42 46 46 49 46 41 37 34 31 29 28 28 28 28 27 25 24 25 26 25 24 24 23 21 20 18 17 17 15 13
8 8 7 6 3 1 1 1 1 2 3 8 12 15 19 23 26 27 31 35 37 39 42 45 46 47 47 43 38 36 34 33 32 31 31 31 30 29 29 29 28 24 23 24 23 23 23 22 19 17 16 15 15 14
Wind_Direction
292 291 292 293 300 307 312 316 318 319 322 325 331 333 338 340 344 348 344 335 332 329 328 326 333 339 333 327 315 312 312 305 289 277 267 257 245 241 236 234 233 227 226 223 226 225 223 224 226 226 225 228 223 222
292 292 294 299 303 307 311 313 316 319 322 325 330 331 337 340 345 347 339 334 334 337 342 339 336 332 328 321 319 322 319 316 313 307 293 268 252 241 229 230 230 230 226 225 223 225 226 226 227 226 226 226 226 224
289 290 293 296 300 303 307 311 314 317 321 324 329 330 338 340 345 347 334 336 339 346 346 347 339 335 329 334 340 354 357 358 339 327 314 296 267 244 235 233 230 226 227 227 225 225 226 227 227 228 227 227 226 225
285 288 290 293 295 300 303 308 311 315 319 322 329 331 336 338 342 345 334 335 342 347 348 349 348 350 5 17 26 28 28 28 21 10 357 333 300 260 240 235 236 232 229 227 226 228 227 227 227 229 230 228 227 226
282 283 285 288 292 296 301 304 308 312 315 319 324 328 335 338 341 340 334 331 343 348 347 355 356 23 35 40 40 39 40 37 37 37 31 20 1 322 262 241 235 236 233 231 228 228 230 231 230 230 230 230 230 227
280 284 285 286 289 292 296 300 304 308 310 315 320 324 332 336 338 337 330 331 343 348 348 360 6 31 41 40 43 44 41 40 40 41 41 40 36 30 20 267 233 232 234 237 233 230 229 231 234 232 231 230 230 229
275 277 278 282 286 288 292 296 299 303 306 309 316 320 329 335 338 332 325 325 339 346 348 1 10 30 50 51 49 51 48 45 42 40 40 41 42 40 39 44 37 259 234 235 236 234 233 230 233 235 233 231 231 231
270 268 272 276 278 281 286 290 293 297 301 305 311 319 325 334 333 321 315 320 331 341 347 355 9 21 39 46 47 46 47 47 44 41 41 40 39 41 42 40 35 31 22 288 249 245 242 235 230 233 236 235 234 234
274 272 266 271 274 278 284 288 290 293 297 303 310 317 323 334 328 312 309 311 323 340 343 344 352 9 29 33 42 44 45 47 51 49 46 42 38 36 35 36 39 38 31 18 356 286 256 246 242 238 236 237 237 236
270 274 273 269 273 276 279 284 290 295 298 302 311 314 321 331 322 302 296 299 308 337 342 337 334 337 348 27 36 47 56 50 34 32 32 30 28 27 28 23 23 29 26 18 15 3 328 282 258 250 245 240 238 239
268 271 272 272 270 274 278 284 289 293 298 302 307 313 319 325 312 276 287 286 289 321 336 336 323 328 297 359 31 64 51 34 26 25 27 23 18 18 20 16 12 12 11 9 3 357 346 320 283 268 260 254 248 242
262 265 268 269 270 273 277 283 289 292 297 302 306 316 314 305 295 264 267 268 279 315 320 327 325 287 267 323 317 348 353 2 9 16 14 10 11 11 12 10 8 3 0 357 352 350 348 330 311 288 272 260 255 252
258 261 262 262 264 267 277 283 288 294 297 301 307 314 305 281 251 252 250 255 281 297 299 316 317 305 286 299 276 297 335 346 348 350 360 2 2 5 2 3 2 356 353 351 347 343 341 330 311 295 283 272 262 254
251 255 257 258 258 262 273 278 288 294 294 301 307 302 280 245 249 242 250 269 280 287 295 307 314 304 289 283 289 289 313 332 337 339 350 353 358 359 353 351 352 352 346 345 341 339 336 327 312 297 283 275 269 265
244 247 251 250 253 262 269 276 283 286 294 298 293 279 241 237 242 244 246 267 277 289 288 293 304 310 291 270 289 302 327 334 332 334 337 345 352 354 349 345 344 341 339 339 336 335 331 324 318 308 296 285 275 268
235 241 243 247 254 262 269 274 278 284 290 282 271 244 226 229 244 246 249 257 276 282 288 289 304 315 305 279 284 302 322 335 332 333 333 349 347 346 342 339 339 334 333 331 331 330 327 321 317 311 302 295 288 283
226 231 239 247 255 261 267 273 279 281 274 268 237 226 226 228 237 241 245 259 268 277 289 292 306 317 309 285 284 300 317 324 324 336 339 346 327 335 336 332 333 331 329 329 330 329 325 321 320 312 303 296 290 285
229 236 245 250 256 261 267 272 270 269 266 243 213 219 225 223 232 242 254 258 266 278 287 293 308 316 310 292 292 298 305 316 322 337 337 341 328 329 326 330 328 328 327 330 330 328 325 325 321 316 311 303 295 290
234 242 247 250 255 261 263 262 264 258 234 213 213 220 226 234 241 259 260 265 269 279 289 300 308 310 303 289 283 289 312 319 323 332 336 327 325 323 327 326 327 328 330 329 328 326 324 324 322 321 312 307 297 291
239 243 246 249 253 253 254 254 241 221 208 208 212 220 226 236 242 250 255 265 273 279 289 296 309 311 309 303 296 309 312 317 327 331 325 320 321 324 324 326 327 328 329 327 326 323 324 323 324 321 314 314 307 307
239 240 241 242 242 242 234 217 208 210 213 213 215 224 226 227 232 240 249 261 266 274 287 301 311 318 302 296 306 315 313 318 328 324 322 322 324 323 323 324 326 327 327 326 325 324 323 323 326 324 325 328 323 322
222 224 226 222 214 205 202 204 212 227 227 227 228 232 238 232 230 236 250 257 259 274 286 305 314 314 317 314 319 319 315 322 323 325 325 326 326 323 323 324 326 325 326 324 324 322 323 326 325 333 337 336 330 324
205 201 198 198 201 207 211 215 222 221 237 231 219 215 215 219 228 238 243 246 259 278 293 308 312 314 312 311 312 319 326 323 323 324 329 327 326 326 325 325 326 325 325 324 323 322 325 327 330 338 341 338 330 323
192 197 202 208 212 216 219 219 217 224 227 205 194 200 211 224 232 245 244 252 261 283 301 312 314 315 314 310 323 328 324 321 323 326 325 326 326 326 324 324 325 323 321 321 323 326 328 330 334 337 338 338 330 324
217 225 233 236 237 231 224 217 211 218 204 196 201 218 230 236 250 251 245 256 275 287 300 315 316 308 306 322 323 319 320 324 326 325 326 326 325 324 324 325 325 322 321 325 325 327 331 333 333 331 333 336 335 329
250 246 241 234 227 218 208 205 205 199 192 198 215 230 239 250 255 249 254 272 289 302 304 307 310 310 312 316 318 316 318 319 323 325 325 325 324 324 325 325 324 322 324 324 325 329 331 330 331 330 332 336 338 337
229 215 207 192 175 174 184 187 186 185 192 209 229 238 255 265 250 253 268 284 294 299 301 307 309 311 316 317 317 320 322 323 324 325 326 325 324 324 324 324 324 325 328 330 334 333 331 329 330 333 332 338 342 343
151 144 143 147 151 153 155 160 170 186 211 222 223 230 231 237 250 267 280 287 294 297 298 301 307 308 310 316 322 325 325 325 326 327 327 327 326 326 326 324 324 327 332 334 333 332 333 332 329 332 333 338 345 350
127 131 135 140 147 153 160 167 180 193 215 227 228 217 224 252 266 278 286 289 294 303 308 311 312 317 317 320 322 325 326 326 327 328 329 327 326 326 326 323 329 339 337 330 329 328 330 333 330 330 333 336 342 348
131 136 141 146 156 170 191 215 224 218 208 221 227 242 265 289 297 299 301 301 305 307 310 310 313 317 319 318 322 324 326 327 328 328 329 328 331 335 337 337 337 336 337 338 334 328 326 323 327 332 329 330 335 341
148 148 157 175 186 178 170 166 177 188 210 236 263 285 284 262 274 288 303 308 310 307 307 313 314 313 317 319 321 323 322 323 325 327 330 333 335 337 338 338 337 335 335 338 338 336 332 329 326 326 326 322 323 331
135 111 107 113 124 135 156 176 206 249 288 296 289 284 291 296 301 302 311 317 317 316 312 311 313 315 317 319 318 316 319 322 325 329 335 339 340 338 336 336 336 333 332 332 333 333 333 332 329 323 321 326 324 327
120 123 123 124 121 97 308 307 78 73 324 304 299 303 305 305 310 316 315 313 311 312 313 312 314 316 316 316 315 317 319 323 326 329 331 333 333 333 330 327 326 324 323 321 323 322 319 319 320 320 313 311 315 317
Height
10758 10756 10754 10751 10748 10745 10741 10736 10730 10724 10716 10708 10699 10689 10678 10667 10652 10638 10627 10623 10618 10610 10601 10594 10587 10580 10574 10567 10561 10557 10551 10547 10543 10539 10537 10536 10538 10540 10544 10547 10550 10556 10562 10570 10579 10586 10596 10605 10619 10634 10650 10656 10674 10689
10749 10748 10745 10743 10740 10736 10732 10727 10721 10714 10707 10699 10690 10680 10670 10659 10646 10632 10624 10620 10612 10604 10594 10585 10578 10572 10566 10561 10555 10549 10543 10537 10530 10525 10523 10523 10523 10524 10527 10531 10537 10543 10550 10555 10563 10571 10579 10590 10600 10615 10628 10639 10656 10670
10740 10737 10736 10733 10730 10727 10722 10717 10711 10705 10697 10689 10681 10671 10663 10652 10641 10628 10621 10615 10606 10597 10589 10582 10576 10570 10565 10559 10552 10546 10540 10534 10527 10520 10515 10512 10512 10513 10515 10518 10522 10530 10537 10543 10550 10556 10564 10573 10581 10592 10605 10619 10633 10648
10729 10727 10725 10722 10719 10716 10711 10707 10702 10696 10688 10680 10673 10664 10655 10644 10636 10624 10616 10612 10604 10596 10588 10581 10574 10569 10563 10558 10551 10544 10538 10532 10526 10519 10513 10508 10506 10507 10507 10509 10513 10520 10525 10531 10538 10542 10549 10556 10564 10573 10584 10599 10611 10626
10717 10715 10712 10710 10707 10704 10701 10695 10691 10686 10680 10672 10666 10656 10649 10637 10630 10619 10612 10609 10603 10596 10589 10582 10575 10570 10565 10560 10553 10546 10539 10533 10527 10521 10514 10508 10504 10503 10502 10504 10507 10512 10516 10522 10527 10532 10537 10543 10551 10559 10567 10579 10590 10605
10702 10701 10699 10697 10694 10692 10688 10684 10680 10676 10670 10664 10658 10650 10643 10633 10625 10616 10609 10605 10601 10594 10588 10582 10577 10571 10566 10561 10556 10549 10544 10537 10531 10524 10518 10512 10507 10504 10502 10502 10504 10507 10510 10514 10518 10523 10527 10532 10537 10544 10552 10562 10570 10581
10688 10687 10684 10682 10681 10678 10675 10672 10668 10664 10660 10654 10650 10643 10635 10626 10618 10610 10606 10603 10599 10594 10588 10582 10578 10573 10568 10563 10559 10552 10547 10542 10536 10529 10524 10519 10514 10509 10505 10504 10504 10505 10506 10508 10510 10514 10518 10523 10526 10531 10537 10545 10552 10560
10670 10671 10670 10669 10666 10664 10661 10659 10655 10652 10649 10644 10640 10635 10627 10620 10613 10606 10603 10601 10597 10592 10588 10583 10579 10575 10571 10566 10562 10556 10552 10547 10541 10535 10530 10525 10520 10516 10513 10509 10506 10505 10505 10505 10506 10507 10510 10513 10515 10517 10521 10527 10535 10542
10651 10652 10654 10654 10652 10651 10648 10646 10641 10638 10635 10633 10630 10625 10619 10613 10607 10603 10601 10598 10595 10591 10586 10582 10580 10577 10573 10569 10563 10559 10555 10550 10546 10541 10536 10531 10526 10522 10519 10515 10512 10510 10506 10503 10502 10501 10501 10503 10505 10508 10510 10514 10517 10521
10634 10635 10636 10638 10639 10636 10634 10633 10630 10627 10624 10619 10618 10614 10609 10606 10599 10598 10596 10594 10592 10589 10585 10581 10578 10576 10574 10570 10565 10561 10556 10552 10549 10544 10539 10536 10531 10525 10520 10517 10513 10510 10507 10504 10502 10499 10496 10494 10494 10495 10496 10498 10501 10504
10615 10618 10619 10621 10622 10621 10621 10619 10617 10614 10611 10607 10606 10603 10598 10595 10592 10592 10591 10589 10588 10584 10581 10578 10576 10574 10572 10570 10565 10561 10557 10552 10548 10544 10540 10536 10532 10527 10521 10516 10512 10508 10503 10500 10496 10493 10490 10487 10485 10483 10481 10482 10483 10485
10598 10600 10602 10603 10605 10605 10605 10605 10603 10600 10597 10595 10593 10592 10588 10586 10585 10586 10586 10584 10583 10580 10578 10574 10572 10571 10569 10566 10564 10560 10556 10552 10547 10543 10538 10534 10530 10526 10521 10516 10510 10506 10501 10497 10494 10487 10482 10476 10472 10471 10470 10467 10466 10466
10577 10581 10583 10586 10588 10590 10590 10591 10589 10586 10584 10582 10581 10580 10577 10577 10577 10578 10580 10579 10578 10577 10574 10571 10568 10566 10563 10562 10560 10557 10554 10550 10545 10540 10535 10530 10525 10519 10515 10511 10506 10501 10495 10489 10484 10479 10473 10468 10461 10456 10454 10453 10451 10450
10555 10561 10566 10570 10573 10575 10575 10575 10575 10573 10570 10570 10569 10568 10568 10569 10570 10571 10573 10574 10574 10572 10569 10567 10564 10561 10559 10557 10555 10552 10550 10546 10541 10537 10531 10525 10519 10514 10509 10504 10496 10490 10484 10478 10472 10466 10459 10453 10448 10443 10439 10436 10434 10431
10535 10543 10550 10554 10557 10559 10560 10561 10561 10560 10558 10557 10556 10557 10559 10561 10563 10565 10567 10568 10569 10568 10565 10563 10560 10557 10554 10552 10550 10548 10546 10541 10537 10531 10525 10519 10511 10506 10501 10496 10489 10482 10476 10467 10460 10452 10445 10438 10431 10426 10422 10419 10416 10414
10520 10529 10534 10537 10540 10543 10544 10546 10547 10547 10545 10545 10545 10547 10551 10555 10556 10559 10561 10562 10563 10562 10560 10558 10556 10553 10550 10547 10545 10542 10540 10535 10529 10523 10517 10509 10503 10498 10493 10488 10483 10477 10469 10460 10451 10443 10434 10425 10418 10413 10408 10402 10397 10392
10507 10513 10517 10521 10525 10529 10530 10531 10532 10532 10532 10532 10535 10540 10545 10549 10552 10553 10555 10556 10557 10556 10554 10552 10550 10547 10542 10540 10538 10536 10533 10528 10524 10518 10510 10501 10497 10490 10486 10480 10473 10465 10457 10447 10438 10428 10419 10411 10404 10400 10395 10389 10384 10379
10493 10499 10504 10509 10513 10515 10517 10518 10519 10519 10520 10524 10529 10534 10538 10542 10544 10547 10549 10550 10550 10549 10548 10546 10544 10540 10536 10534 10533 10530 10526 10522 10517 10511 10504 10497 10491 10486 10481 10474 10465 10455 10444 10432 10420 10413 10405 10397 10392 10387 10380 10376 10371 10365
10484 10490 10494 10497 10500 10503 10505 10506 10508 10509 10512 10518 10523 10527 10532 10535 10538 10540 10542 10543 10543 10542 10541 10540 10536 10532 10531 10528 10526 10523 10520 10514 10508 10502 10496 10491 10485 10479 10471 10463 10453 10443 10432 10419 10410 10402 10392 10387 10381 10375 10370 10365 10359 10355
10475 10479 10483 10486 10489 10492 10494 10497 10499 10503 10508 10513 10517 10521 10525 10529 10532 10534 10536 10536 10536 10536 10536 10534 10531 10526 10523 10522 10519 10517 10512 10507 10501 10494 10489 10482 10475 10467 10459 10450 10440 10430 10420 10409 10401 10392 10383 10378 10373 10367 10362 10356 10350 10346
10466 10470 10474 10477 10480 10484 10487 10491 10495 10499 10503 10508 10512 10514 10519 10523 10525 10528 10529 10530 10530 10531 10531 10528 10525 10521 10519 10517 10513 10509 10504 10498 10492 10487 10481 10474 10465 10455 10445 10437 10428 10417 10408 10399 10392 10383 10376 10370 10365 10360 10353 10348 10341 10338
10460 10464 10467 10470 10474 10478 10483 10487 10491 10495 10498 10502 10505 10508 10513 10515 10518 10520 10522 10524 10525 10526 10525 10522 10518 10514 10511 10508 10505 10500 10495 10489 10484 10478 10470 10462 10454 10444 10434 10424 10414 10404 10397 10389 10382 10375 10369 10362 10357 10353 10347 10341 10337 10333
10457 10460 10464 10468 10472 10477 10481 10485 10488 10491 10494 10496 10498 10502 10506 10510 10512 10515 10516 10518 10520 10520 10518 10515 10511 10507 10504 10502 10498 10491 10484 10479 10474 10466 10457 10450 10441 10430 10419 10410 10403 10393 10386 10380 10374 10367 10361 10355 10350 10346 10342 10337 10333 10330
10456 10460 10464 10467 10471 10474 10477 10481 10484 10487 10490 10492 10495 10498 10502 10505 10507 10510 10512 10514 10515 10514 10512 10509 10506 10502 10498 10494 10488 10482 10475 10469 10463 10455 10445 10435 10426 10416 10407 10399 10393 10386 10380 10374 10368 10361 10355 10349 10345 10341 10338 10334 10330 10327
10456 10459 10461 10464 10466 10469 10473 10477 10480 10484 10487 10490 10494 10497 10500 10502 10504 10506 10508 10509 10509 10508 10505 10503 10499 10496 10491 10486 10481 10476 10467 10457 10449 10439 10428 10420 10412 10404 10395 10388 10383 10378 10372 10366 10361 10356 10351 10347 10342 10338 10335 10332 10328 10324
10450 10452 10454 10456 10458 10463 10468 10473 10477 10481 10486 10490 10493 10495 10497 10500 10501 10502 10503 10504 10503 10501 10499 10496 10492 10487 10482 10477 10473 10466 10458 10448 10439 10429 10419 10411 10402 10394 10388 10383 10378 10372 10366 10361 10357 10352 10348 10344 10341 10337 10332 10328 10324 10321
10445 10448 10450 10453 10457 10462 10467 10471 10476 10481 10486 10489 10491 10493 10495 10497 10498 10498 10498 10498 10496 10495 10492 10488 10484 10479 10473 10468 10463 10457 10448 10437 10426 10416 10407 10400 10394 10387 10382 10378 10373 10368 10362 10357 10352 10348 10344 10340 10337 10335 10331 10328 10324 10319
10446 10449 10453 10456 10460 10465 10470 10475 10479 10483 10485 10487 10489 10491 10492 10493 10493 10492 10491 10490 10489 10487 10484 10480 10476 10471 10465 10459 10451 10445 10437 10427 10416 10406 10398 10392 10386 10380 10376 10371 10367 10363 10357 10352 10349 10345 10341 10337 10333 10331 10327 10323 10320 10317
10451 10454 10457 10461 10464 10468 10472 10476 10479 10481 10483 10485 10487 10488 10489 10490 10488 10487 10485 10483 10481 10479 10475 10471 10466 10461 10454 10447 10441 10434 10426 10417 10409 10401 10393 10387 10381 10375 10371 10366 10362 10357 10353 10349 10346 10343 10339 10335 10331 10327 10324 10321 10318 10314
10456 10459 10462 10465 10469 10472 10474 10476 10478 10479 10481 10483 10484 10484 10485 10484 10483 10481 10479 10476 10473 10470 10466 10461 10457 10451 10444 10437 10431 10424 10417 10409 10402 10396 10390 10383 10377 10372 10367 10361 10357 10354 10350 10346 10343 10339 10336 10333 10330 10326 10322 10320 10317 10314
10460 10464 10467 10469 10470 10472 10474 10476 10477 10479 10480 10481 10481 10481 10480 10479 10477 10475 10472 10469 10465 10462 10458 10454 10448 10442 10436 10428 10421 10415 10409 10404 10398 10392 10387 10381 10375 10370 10366 10361 10355 10351 10347 10342 10338 10335 10332 10329 10325 10323 10321 10318 10315 10312
10465 10468 10469 10471 10472 10474 10475 10477 10478 10479 10479 10478 10478 10477 10475 10473 10471 10468 10464 10459 10455 10451 10447 10442 10436 10431 10425 10419 10413 10407 10401 10396 10391 10385 10380 10375 10370 10365 10360 10356 10352 10347 10343 10339 10335 10331 10327 10324 10321 10319 10316 10313 10311 10309
10468 10469 10470 10472 10473 10474 10476 10476 10476 10476 10476 10475 10474 10472 10468 10465 10462 10458 10454 10450 10444 10439 10434 10429 10423 10417 10412 10407 10401 10395 10391 10386 10381 10376 10371 10368 10365 10361 10356 10352 10348 10345 10342 10337 10333 10329 10326 10323 10320 10317 10314 10312 10309 10306